Theta_e
309 300 297 297 300 301 304 305 304 304 304 303 302 300 298 298 295 292 293 297 294 293 294 296 296 295 296 298 300 300 300 301 303 303 306 307 308 309 311 314 316 318 319 324 325 326 327 327 327 327 328 328 330 331 331 331 331 331 330 330 330 331 331 332 332 331 330 329 329 330 329 329 331 331 333 332 332 334 335 336 335 334 333 334 334 334
307 299 299 302 303 303 304 305 304 301 301 301 299 298 296 296 297 296 295 296 296 293 294 296 295 295 296 298 300 300 297 298 299 301 302 304 307 308 310 312 315 317 321 322 320 322 324 325 326 326 326 324 326 328 329 330 331 331 331 331 331 331 331 332 332 332 331 331 331 330 329 329 330 331 331 332 333 334 335 336 335 335 334 335 334 333
298 297 302 305 307 306 305 304 302 300 298 299 299 298 297 295 297 297 296 295 295 294 295 297 294 295 297 298 300 300 299 300 301 302 302 303 305 306 308 310 312 315 316 318 319 320 321 324 325 325 326 326 327 328 328 329 330 331 331 332 332 333 332 332 333 332 331 332 333 333 333 332 332 335 336 336 335 335 335 336 336 335 335 335 334 334
293 299 305 307 307 305 302 300 300 298 297 297 297 296 295 297 294 294 293 294 295 295 295 295 293 295 297 299 300 302 301 301 302 302 303 304 303 304 306 308 310 311 313 314 316 317 319 321 323 324 325 326 327 327 328 328 328 329 330 331 332 332 333 333 333 331 334 333 334 335 335 335 335 334 335 336 337 336 335 335 336 336 335 334 333 334
297 302 307 307 306 304 299 298 298 295 292 296 297 298 298 291 295 297 294 294 295 295 293 293 293 295 297 298 300 304 302 300 301 300 300 302 304 305 308 306 308 308 311 313 314 316 317 317 320 322 324 325 325 327 328 328 328 328 329 331 332 332 333 333 333 332 333 333 332 333 333 334 332 330 332 331 331 332 333 333 333 334 335 335 334 334
299 305 307 305 304 303 300 297 298 297 294 293 295 298 300 296 296 294 293 293 294 294 294 293 290 292 300 300 301 304 298 297 299 298 299 300 301 301 300 303 305 307 309 310 312 314 315 315 317 320 322 324 325 326 328 329 329 329 329 330 331 332 333 333 334 333 332 331 330 329 326 324 325 325 326 325 327 328 328 329 332 334 335 335 335 334
301 305 305 303 303 301 298 297 299 301 297 293 294 297 299 299 297 294 291 292 290 288 292 292 290 289 295 294 297 299 299 300 300 297 299 301 301 301 301 302 303 305 305 307 308 310 312 313 314 316 319 322 323 325 327 329 329 329 329 330 330 331 331 333 333 333 331 331 331 329 328 327 326 326 327 330 332 332 331 331 332 334 336 336 334 334
300 300 303 303 301 300 297 295 299 301 299 294 300 298 298 297 296 295 293 293 292 293 295 292 291 286 287 293 298 299 297 297 299 299 299 300 300 300 300 302 303 305 305 306 306 306 308 310 311 312 315 318 321 324 327 328 329 328 329 329 330 330 330 332 333 333 332 331 330 329 329 328 328 328 329 330 332 333 333 332 332 333 334 334 333 333
300 298 300 299 300 298 297 300 301 302 299 298 299 300 298 297 297 296 295 292 291 290 288 292 292 287 287 292 292 295 296 297 298 299 300 300 301 300 301 301 302 304 305 305 307 306 305 306 309 310 313 315 319 322 324 326 328 329 329 329 329 329 329 330 331 331 331 330 331 330 329 328 329 330 331 331 331 331 333 333 332 331 329 330 331 331
300 301 302 302 300 297 302 303 302 302 298 293 297 299 299 297 295 294 291 290 289 287 285 290 291 286 288 294 294 293 294 297 299 301 301 301 302 302 302 302 302 302 304 305 304 306 307 306 307 309 311 313 315 319 323 325 326 327 328 327 327 328 328 329 330 330 331 331 330 330 330 329 328 329 330 331 330 330 332 331 330 328 326 324 324 327
297 301 306 303 300 302 301 302 302 303 297 296 297 295 294 294 292 292 293 290 288 283 287 291 290 290 285 293 295 293 294 297 299 301 301 302 303 302 303 304 305 302 302 304 304 304 305 307 306 306 305 307 311 316 318 320 322 325 326 326 326 327 328 329 329 329 329 330 330 330 330 329 329 329 329 328 327 328 328 328 327 326 324 322 322 323
297 299 301 301 299 300 301 296 298 297 294 296 293 291 291 289 292 289 288 289 284 284 284 286 289 290 283 289 295 299 298 299 300 299 301 302 302 302 302 301 300 300 302 303 303 303 303 303 303 303 303 304 307 311 314 317 320 322 324 325 325 325 326 327 327 328 328 329 329 330 330 330 330 329 328 326 325 326 325 327 325 324 322 320 320 321
293 295 297 296 300 302 299 296 294 294 295 295 293 292 287 283 284 281 284 280 281 283 284 286 287 286 286 293 297 297 296 296 298 301 302 302 302 304 305 304 302 301 301 301 302 303 303 302 302 302 302 304 306 308 310 314 317 320 322 323 323 324 325 325 327 327 327 328 329 329 329 330 330 330 329 327 327 326 326 326 324 320 317 316 315 316
290 295 295 295 296 301 301 293 288 286 291 293 290 289 286 281 280 279 282 284 284 286 286 287 288 285 292 294 298 298 299 299 299 299 301 302 303 304 306 306 299 300 299 299 300 301 302 303 303 303 303 303 305 307 310 312 315 318 320 321 322 323 324 325 326 326 326 327 328 329 329 330 330 329 329 328 327 327 327 327 324 320 318 315 315 316
282 284 290 293 291 299 300 298 293 291 291 292 296 293 290 287 284 280 283 280 283 286 285 287 287 286 288 293 294 295 297 299 298 297 298 298 299 300 300 297 296 297 298 299 298 299 299 300 300 302 303 304 304 305 307 311 313 316 318 320 321 322 324 324 324 325 325 326 327 328 328 329 330 330 329 328 328 327 327 326 324 320 319 317 317 317
288 288 293 297 298 299 298 299 299 294 292 294 295 295 290 289 294 287 287 288 285 284 282 282 286 292 294 296 297 298 296 295 295 297 296 296 297 298 296 296 296 297 298 300 300 300 300 301 302 302 303 304 305 305 307 308 312 315 316 318 320 321 323 324 323 323 324 325 326 327 327 328 329 329 328 327 327 327 327 326 323 321 319 319 320 318
291 286 293 295 296 298 300 298 298 299 286 291 291 287 291 295 292 286 284 283 284 285 284 288 286 291 296 297 299 299 297 296 295 295 295 297 299 301 300 300 298 299 300 301 302 303 303 303 303 303 303 304 305 305 306 308 310 312 315 316 318 320 322 322 322 323 323 324 325 325 326 327 328 327 326 326 326 327 327 326 324 323 322 320 320 314
290 286 290 292 290 298 295 300 299 299 298 292 286 291 294 297 296 289 285 283 283 282 285 285 285 288 288 286 296 298 298 297 297 296 296 297 299 299 301 302 301 301 301 302 303 304 305 305 304 304 304 305 305 305 305 306 309 311 313 314 315 317 318 320 320 320 322 322 323 324 325 325 326 326 326 326 326 327 325 325 323 322 319 319 314 310
294 284 288 289 294 295 295 298 295 298 299 295 293 300 293 286 286 289 287 279 280 279 283 285 285 286 289 291 293 293 294 297 298 299 297 296 296 298 301 303 303 302 301 303 303 305 304 303 303 303 303 303 303 304 306 307 307 308 310 312 313 314 317 318 318 319 321 322 322 323 323 324 325 326 326 326 326 326 324 323 321 317 317 314 308 306
297 286 285 290 291 292 294 296 286 290 294 295 297 295 298 293 291 286 287 286 287 283 282 283 283 285 291 292 295 295 296 297 298 298 298 298 298 297 298 300 301 302 302 303 303 303 303 303 303 302 301 300 300 302 303 304 305 306 308 310 311 314 316 316 316 317 318 320 321 321 322 323 324 324 324 324 324 323 322 321 318 315 313 307 306 304
290 293 282 287 290 293 287 292 291 292 287 288 290 290 291 291 292 293 291 287 286 284 284 284 282 288 292 295 295 296 298 299 299 299 301 300 298 297 297 298 300 300 301 302 302 301 302 302 302 301 300 300 300 301 302 303 304 306 308 309 311 311 312 313 313 314 316 318 318 318 319 320 321 322 323 323 323 322 321 319 315 314 312 307 304 304
289 290 284 286 285 286 289 293 295 296 294 291 291 289 291 288 286 284 284 291 286 285 282 282 282 289 292 290 295 297 298 299 299 298 298 297 295 299 300 298 297 299 300 300 301 300 301 301 302 302 300 299 299 300 302 304 305 306 306 307 309 311 311 311 312 312 313 314 316 317 318 318 319 320 320 320 321 319 318 316 314 311 307 305 300 300
294 292 288 284 285 288 290 291 289 292 297 295 295 292 295 293 292 288 284 285 286 287 286 284 281 286 296 292 294 296 297 295 294 295 296 297 298 299 298 298 298 296 296 298 299 300 301 301 301 301 300 298 299 301 304 305 305 305 306 306 307 307 308 310 311 311 312 312 313 314 315 315 314 315 315 315 313 313 311 311 308 305 305 300 297 298
294 288 285 286 289 290 291 291 292 291 294 293 293 295 294 291 292 292 289 289 287 286 284 285 281 287 294 293 292 293 294 293 293 292 295 296 297 297 297 298 298 297 297 297 298 299 300 299 298 297 298 298 298 301 303 305 305 306 306 306 307 306 307 308 309 309 309 310 311 312 311 311 310 309 309 310 308 307 305 303 301 301 302 298 297 297
290 289 288 282 282 284 287 290 290 291 292 291 291 292 293 294 295 290 286 288 285 287 287 286 281 288 295 292 291 288 289 291 293 293 293 295 297 298 297 296 296 296 296 297 298 299 299 298 297 298 300 301 300 300 303 304 304 305 306 306 306 306 307 307 308 308 308 308 307 306 307 307 307 307 306 306 304 302 299 298 298 298 299 298 298 295
293 290 288 281 277 276 276 278 281 283 286 290 292 291 291 292 292 288 285 287 283 287 287 286 287 294 293 293 293 293 293 293 294 294 293 294 295 296 297 298 296 296 297 297 298 297 298 299 299 299 300 301 301 301 301 302 303 304 305 306 306 305 303 303 304 305 305 305 305 304 304 304 304 304 304 302 299 297 296 296 297 297 296 298 296 295
291 292 292 289 286 284 286 288 291 291 289 285 288 289 289 291 293 292 290 288 285 288 286 289 291 293 291 293 293 295 295 296 296 294 295 297 297 297 297 297 297 298 297 297 297 298 297 297 297 298 299 300 300 300 300 300 302 302 302 302 303 303 302 301 302 303 303 302 304 301 302 301 302 302 300 298 296 295 294 294 294 294 295 295 295 295
289 288 291 292 292 292 293 289 292 292 288 289 288 288 291 290 290 289 287 287 292 287 285 290 292 289 292 293 294 296 297 294 291 294 294 295 297 300 298 296 294 297 298 298 297 297 297 298 299 299 299 299 299 298 299 299 301 301 300 300 299 300 300 300 301 301 301 301 301 300 299 299 298 297 296 295 294 294 294 294 293 293 293 292 293 293
292 288 292 292 290 289 292 291 292 292 291 291 291 290 289 291 290 286 288 292 293 287 287 293 293 291 292 295 296 296 297 296 295 294 296 296 295 295 296 297 300 301 300 299 300 300 299 299 300 299 299 299 298 297 297 297 297 298 299 300 299 299 299 299 299 298 298 298 298 298 298 295 294 295 295 293 293 293 293 293 293 292 291 291 291 292
294 290 292 293 288 289 289 292 292 291 290 290 291 291 291 291 290 290 290 292 293 292 293 294 293 293 296 297 298 299 300 299 296 295 295 294 295 298 298 298 300 301 301 301 302 302 301 300 300 300 300 299 298 298 297 297 297 297 298 298 298 297 298 296 297 297 296 296 296 295 295 296 294 293 292 291 292 293 291 291 291 291 291 291 291 291
294 287 292 291 286 285 288 290 292 292 291 289 291 292 292 292 291 291 291 292 293 292 293 293 292 292 297 300 299 300 300 300 295 293 295 297 299 298 297 297 299 301 302 301 303 302 301 300 300 300 299 299 298 298 297 297 297 298 298 298 296 296 295 295 294 295 295 295 294 293 293 293 293 293 291 292 291 290 290 290 289 289 289 289 288 288
294 287 292 289 285 282 287 289 289 291 290 289 288 290 290 290 288 290 289 292 291 289 291 291 289 290 296 298 298 297 296 296 296 298 299 300 299 297 298 298 299 300 300 301 302 302 300 300 300 299 299 299 299 298 298 297 297 297 297 297 296 296 293 294 294 294 294 294 293 292 291 291 290 292 291 290 290 289 289 288 288 288 288 287 287 286
291 288 287 288 285 280 285 288 287 287 286 284 286 289 291 291 292 293 294 294 294 294 291 288 289 295 297 297 297 296 296 297 297 298 299 301 302 301 299 299 300 301 301 301 301 301 302 300 301 301 301 300 299 299 298 298 297 297 297 296 297 295 293 293 294 295 294 293 292 292 292 291 290 290 290 290 289 289 288 288 287 286 286 286 286 286
292 290 288 291 284 283 283 285 287 285 280 282 295 297 294 291 291 290 290 292 294 295 294 296 296 299 297 297 296 296 297 298 300 302 303 302 302 302 303 301 301 301 302 302 301 301 302 302 301 300 300 301 301 300 300 299 298 297 298 297 296 294 293 294 294 295 295 293 292 292 291 290 290 290 290 289 288 287 287 287 287 286 286 286 285 285
288 289 289 289 286 282 283 285 284 279 281 293 298 300 296 295 294 292 293 294 295 296 296 296 297 297 299 298 298 299 300 301 302 302 302 303 304 303 302 303 302 301 301 301 302 301 301 301 300 300 300 299 300 300 299 298 297 297 297 297 295 294 294 294 294 294 294 293 293 292 291 290 290 290 289 289 287 286 286 286 286 285 285 285 285 285
287 288 286 283 285 284 282 285 277 279 289 294 292 294 297 296 295 294 292 294 295 295 296 295 296 298 299 299 298 299 301 300 300 300 302 303 304 304 304 304 304 303 301 302 302 303 301 301 301 301 301 301 299 298 298 297 297 296 295 295 295 294 294 294 294 294 294 293 293 292 292 291 290 289 289 288 287 286 286 286 286 285 285 285 285 285
293 290 289 283 285 281 282 284 284 289 288 290 291 288 292 291 291 290 286 291 295 296 296 295 296 297 298 299 300 298 297 296 295 297 300 299 300 300 300 301 303 304 304 304 302 302 302 302 301 301 300 298 298 297 297 297 296 295 294 293 293 293 293 293 293 294 294 293 293 292 292 291 290 289 287 287 286 286 286 286 285 285 285 285 285 284
295 289 290 286 280 285 283 281 281 282 279 286 293 294 296 298 298 298 293 291 299 298 298 297 296 297 298 298 299 299 297 294 293 296 300 301 301 302 302 301 302 301 298 296 296 297 297 298 298 297 298 297 296 297 296 295 295 294 293 292 292 292 292 292 292 294 294 294 293 292 292 291 290 288 287 286 286 286 286 286 285 285 285 284 284 283
294 294 291 289 283 282 283 281 280 278 283 291 290 293 297 298 299 298 290 287 296 299 299 298 297 297 298 298 298 297 294 290 291 297 302 303 302 301 300 300 300 299 298 297 298 298 297 298 297 296 295 296 295 295 295 294 294 293 292 292 292 291 291 291 292 293 293 294 293 292 291 290 289 288 287 287 287 286 286 285 285 284 284 284 284 283
288 289 289 286 280 284 284 282 281 284 284 289 292 292 295 297 299 294 283 285 296 298 300 299 298 298 299 299 299 296 293 290 293 298 300 299 300 300 299 299 298 297 295 294 292 293 294 293 294 294 295 295 295 294 294 293 293 291 292 291 292 291 291 291 292 294 294 294 294 292 291 289 288 288 287 287 286 286 286 285 284 283 283 284 283 282
285 284 288 284 285 284 284 283 283 285 288 289 291 292 294 299 296 285 281 290 295 296 297 299 299 299 299 298 298 293 296 299 300 297 292 295 294 294 292 290 291 291 293 292 293 288 291 292 294 294 295 294 293 292 292 292 292 291 291 291 290 290 291 292 293 292 292 291 290 290 289 288 287 287 287 287 286 286 284 284 283 283 282 282 282 281
284 286 285 287 285 283 284 283 283 287 290 291 288 293 296 293 284 284 294 293 294 292 292 295 297 297 298 298 298 297 299 299 296 293 295 293 295 291 290 290 290 290 289 289 287 289 291 291 291 291 291 291 291 292 291 292 291 291 291 290 289 291 293 292 292 291 290 289 288 288 287 286 287 286 286 285 285 283 283 283 283 282 282 281 281 280
285 283 282 283 286 284 283 282 279 278 289 293 291 288 291 288 291 296 293 288 292 292 293 292 295 296 296 296 298 298 298 294 295 295 295 292 293 293 292 292 292 291 290 290 291 290 291 291 290 289 289 289 289 290 289 289 289 289 289 289 290 291 291 291 291 290 289 288 287 286 286 286 285 285 284 284 284 283 282 281 281 281 281 280 280 279
291 285 285 286 288 282 283 280 282 289 291 294 293 289 291 295 298 294 296 295 291 291 292 294 293 294 295 296 295 295 295 295 292 292 292 291 290 290 290 289 289 289 289 288 287 288 289 289 288 288 287 288 289 289 289 288 288 288 288 289 290 290 289 289 289 288 287 286 286 285 285 284 284 284 284 283 283 282 281 280 280 280 280 280 279 279
290 289 289 286 289 288 285 289 289 290 293 296 296 298 297 297 293 293 295 298 296 292 290 294 295 293 293 295 295 294 292 293 294 293 294 293 291 290 290 288 287 287 287 287 287 286 288 289 288 287 286 287 287 288 288 288 287 287 287 288 288 287 287 287 286 286 285 285 285 284 283 283 283 283 283 283 283 281 280 279 279 279 279 279 279 279
291 292 286 290 289 292 289 290 291 288 292 294 291 292 297 296 289 291 294 295 294 295 292 295 294 294 291 293 293 290 293 293 292 290 291 290 289 286 286 287 287 286 287 286 286 285 286 287 286 286 285 285 286 287 287 287 287 286 287 286 287 286 286 285 285 285 284 284 283 282 282 282 281 281 282 282 282 282 281 280 279 279 279 279 279 279
287 288 289 289 289 289 286 291 291 291 291 292 294 289 289 293 294 291 292 294 295 292 291 289 291 292 292 291 294 293 292 291 292 290 289 288 288 287 288 287 285 285 285 285 283 284 286 286 285 285 284 284 284 285 285 285 285 285 285 285 285 285 285 285 285 283 282 282 282 281 281 281 281 281 280 281 282 282 281 280 280 280 279 279 279 279
287 289 290 288 288 288 289 290 292 293 293 293 294 293 294 293 291 290 291 290 290 288 289 287 287 289 290 291 291 292 290 291 291 289 289 289 288 287 287 286 285 285 283 282 282 282 284 284 284 284 283 283 283 282 281 281 281 282 283 283 283 283 284 283 283 283 282 281 280 280 281 281 277 279 280 280 280 281 280 280 280 280 279 279 280 279
289 290 288 289 287 288 286 286 288 290 291 291 290 292 296 295 294 290 287 287 287 288 286 286 286 289 291 292 290 291 289 289 291 290 289 287 287 286 285 284 283 282 283 283 281 281 284 283 282 282 281 280 279 280 279 279 279 280 281 281 282 283 283 283 281 280 279 279 279 280 280 280 279 280 280 279 279 281 281 280 280 280 280 281 282 282
289 287 290 289 287 287 288 287 289 289 288 292 291 293 292 293 294 289 287 287 288 288 287 287 285 284 285 287 289 291 289 288 288 289 287 288 287 284 283 282 282 282 280 280 280 280 280 280 281 280 279 277 277 277 278 277 277 278 278 280 281 282 282 280 280 279 278 279 279 279 279 279 279 279 279 279 278 278 278 277 279 280 281 280 281 281
290 290 289 288 288 288 291 291 295 296 296 296 296 295 294 291 291 289 289 289 289 289 289 288 287 286 286 285 285 289 289 288 287 288 286 285 284 283 283 283 282 282 282 281 281 280 279 278 278 278 277 276 276 276 276 275 275 276 276 278 280 281 280 280 281 280 278 278 279 278 279 278 278 278 278 278 278 278 277 278 278 279 279 279 280 280
Wind_Speed
7 10 10 12 12 12 11 11 8 7 7 7 8 6 7 6 2 1 3 4 1 6 9 9 11 13 14 16 16 2 4 5 7 8 7 7 8 8 8 10 10 11 12 6 8 8 10 12 13 14 13 14 16 16 15 15 16 16 14 13 13 11 12 10 9 9 9 10 9 8 9 9 8 8 8 7 7 6 7 7 7 6 6 7 7 7
4 11 15 11 13 15 14 11 8 4 3 8 7 8 5 5 8 5 5 5 2 4 7 6 10 14 13 14 17 5 5 10 11 11 10 10 10 8 10 11 11 10 6 7 6 8 10 10 13 12 13 13 16 16 17 18 17 16 15 14 13 11 12 12 12 10 10 10 10 8 8 7 7 8 9 9 9 10 6 8 7 7 7 8 7 8
11 17 14 15 14 13 11 8 7 8 7 6 6 5 5 5 4 5 5 3 3 4 10 9 11 14 13 13 14 11 10 12 12 12 13 11 9 8 8 10 9 7 10 9 10 9 10 12 13 12 13 13 15 14 16 17 18 17 16 16 15 13 13 13 13 12 11 10 10 11 9 10 8 9 10 11 11 9 8 8 8 7 7 7 8 9
13 14 15 15 14 13 8 9 10 6 4 6 6 6 8 5 7 5 7 3 5 3 4 7 12 14 15 14 17 16 13 13 13 12 13 8 11 11 12 9 8 10 10 11 11 13 12 12 12 12 12 14 13 14 13 14 15 16 16 15 16 15 14 13 14 12 13 12 12 12 12 11 11 9 11 12 11 9 9 9 8 8 7 8 8 8
5 5 12 15 15 15 13 12 12 7 5 3 8 9 7 6 9 7 1 2 4 2 2 5 10 14 15 16 14 13 10 12 9 7 9 7 9 9 1 3 9 12 11 11 10 10 11 12 14 15 14 13 14 15 15 14 14 12 16 16 15 14 15 15 14 15 13 12 11 11 10 7 4 1 6 9 9 10 9 9 9 7 7 8 9 10
6 13 14 16 15 15 15 14 14 11 7 6 6 8 11 8 10 6 1 3 5 6 5 3 7 13 11 16 16 12 3 6 9 10 12 12 12 8 10 12 10 10 10 11 11 11 13 13 13 13 13 14 14 14 15 14 15 15 14 15 14 12 12 14 16 16 14 12 12 11 10 9 9 11 9 10 10 9 9 9 8 7 9 9 8 9
6 8 16 15 16 12 12 10 14 13 9 8 8 9 9 10 10 6 4 2 6 7 3 1 9 8 3 8 5 8 9 12 6 9 12 12 10 10 11 12 11 12 11 11 10 8 10 12 12 14 14 16 15 16 14 14 16 17 15 14 15 14 12 13 14 16 14 14 13 14 13 11 11 11 10 9 9 10 10 9 10 9 9 9 9 10
8 12 12 15 16 15 11 8 12 14 11 9 8 15 10 10 12 10 7 6 5 4 7 4 3 7 11 10 7 6 7 9 11 10 11 9 10 11 12 12 12 11 12 10 12 13 13 12 14 16 17 15 17 15 13 14 14 16 17 15 15 13 12 11 12 16 16 15 15 15 15 13 13 12 12 11 11 12 10 10 11 10 7 9 9 9
18 15 15 15 12 12 15 13 13 17 10 3 9 13 13 12 11 6 6 3 1 4 8 6 5 5 11 4 3 5 14 15 16 11 10 12 12 12 13 12 13 14 13 12 10 12 14 15 15 15 13 16 15 13 14 14 13 13 14 14 13 13 13 12 15 14 18 16 16 15 14 14 12 13 11 10 10 11 11 11 11 11 8 7 8 8
2 15 17 18 14 15 13 10 15 16 10 2 7 6 4 4 4 4 2 1 1 3 11 7 9 8 15 9 5 3 10 17 15 13 10 10 11 12 11 11 12 11 10 10 13 12 11 12 12 11 9 9 12 10 10 9 9 10 11 14 15 15 13 13 15 15 17 19 15 16 16 16 14 12 11 11 10 11 11 12 11 10 7 5 5 6
5 5 4 6 10 5 11 12 14 15 3 11 12 10 7 4 3 1 2 2 1 10 9 6 9 8 11 10 11 10 11 9 11 10 6 7 7 8 9 10 10 10 11 10 12 12 12 7 7 6 12 12 7 7 10 10 11 11 12 14 16 17 13 13 15 15 17 18 17 17 18 18 17 15 13 11 10 10 10 11 10 9 7 6 6 6
8 7 7 2 2 7 14 9 6 4 13 13 6 10 10 5 2 4 1 1 6 7 3 2 9 11 11 7 6 11 5 9 12 14 16 15 13 9 9 9 10 10 8 9 9 11 11 8 8 6 10 11 10 8 10 10 10 11 13 13 15 16 17 15 18 18 17 18 18 18 18 18 17 16 14 13 12 11 11 11 9 7 6 6 6 7
6 7 3 4 5 14 12 13 5 6 6 4 10 11 8 4 3 4 2 5 10 6 1 3 5 6 21 17 12 7 5 6 8 11 15 14 11 9 10 12 11 7 6 7 9 8 7 10 11 11 11 8 10 11 12 12 12 12 13 15 16 16 16 17 18 19 20 20 18 18 18 17 15 16 16 15 14 13 12 11 9 7 7 6 6 7
4 3 5 7 2 7 15 13 9 7 6 8 12 10 7 7 5 7 6 2 5 3 4 4 3 11 12 6 14 19 15 10 10 11 9 8 7 7 4 2 2 4 6 7 7 7 7 8 7 8 8 9 9 11 10 11 11 11 11 14 16 16 15 16 17 18 19 20 18 17 17 17 15 16 15 15 14 14 13 11 11 9 8 8 7 8
10 6 9 14 9 9 13 10 13 7 10 6 6 10 5 8 6 7 7 8 4 1 5 4 1 7 2 2 2 5 7 7 4 4 5 7 9 9 5 4 6 7 7 6 6 8 8 7 7 7 8 8 9 10 10 9 10 10 11 13 15 14 15 16 17 17 19 17 17 17 16 16 15 14 14 13 12 13 13 11 12 7 7 8 8 8
12 3 5 8 4 12 13 10 15 15 8 4 1 5 0 6 1 3 0 3 2 2 2 5 8 2 5 6 10 4 4 6 6 6 5 9 9 7 8 8 8 8 8 5 6 7 8 7 7 7 7 8 8 10 9 11 10 10 12 12 14 15 14 15 16 17 17 17 15 17 17 17 14 8 11 12 11 11 12 12 10 10 8 7 9 7
6 5 6 8 2 18 14 14 13 19 11 9 5 8 5 5 2 2 2 3 2 1 10 4 8 9 9 15 15 14 6 7 5 7 7 10 11 8 8 8 8 8 5 4 6 7 6 6 7 8 9 8 9 9 10 11 11 12 11 12 13 13 13 15 16 15 14 15 15 16 16 15 12 13 13 12 13 13 12 13 10 12 11 10 9 6
15 8 3 4 10 6 7 7 10 7 5 9 7 9 4 2 4 1 5 3 4 7 6 4 12 7 2 9 2 12 15 8 6 9 8 8 6 7 10 11 13 9 6 5 7 8 7 7 7 7 7 8 8 9 8 9 9 9 10 10 12 12 14 15 13 14 14 14 15 15 16 15 14 14 13 12 12 12 11 10 7 8 9 9 8 6
14 10 4 4 6 5 1 7 7 3 5 5 7 10 10 7 7 6 2 5 6 7 7 6 6 10 12 11 3 4 10 12 13 10 6 7 8 9 11 12 7 5 5 7 7 6 5 6 6 6 6 6 6 6 7 6 7 7 8 10 13 14 14 13 11 11 10 13 10 9 11 12 12 12 11 11 11 12 11 12 10 9 10 7 6 7
7 7 5 2 4 5 4 9 11 9 3 1 4 11 0 1 5 7 7 2 1 9 3 5 5 10 9 13 10 12 4 5 8 8 9 11 9 3 5 7 6 5 6 5 4 5 5 5 6 6 5 5 6 6 6 7 7 8 9 11 11 11 12 12 12 10 11 11 10 9 9 9 9 9 10 9 10 11 12 12 11 11 10 8 8 7
4 2 8 5 1 8 10 10 14 16 13 6 8 8 4 3 3 2 1 5 5 5 6 8 6 8 3 7 11 15 16 15 13 9 7 7 2 3 6 6 4 5 4 5 4 5 5 6 5 5 5 5 6 7 7 8 9 8 8 9 11 12 12 11 10 9 10 9 9 10 10 10 10 10 10 11 11 12 12 11 10 11 8 9 9 11
4 4 11 12 7 11 5 1 1 13 14 11 14 14 15 13 9 9 9 5 2 5 4 3 12 4 3 3 7 10 11 12 6 4 5 1 4 7 6 4 4 5 5 4 4 4 5 5 5 4 4 5 6 7 8 7 8 9 9 8 8 10 10 10 9 8 8 7 7 9 9 10 8 8 9 11 11 11 10 10 10 11 9 11 9 10
3 6 13 13 9 9 2 3 4 4 5 7 10 11 12 11 8 6 10 5 1 5 4 1 5 9 8 9 9 8 6 4 5 4 6 5 7 7 4 5 5 5 7 6 5 4 4 4 3 3 4 6 8 8 8 8 8 8 8 8 8 8 9 9 9 8 8 8 7 7 6 6 7 7 9 10 9 10 9 10 9 10 12 10 9 8
8 6 10 9 7 3 3 0 2 4 2 8 9 8 11 15 15 6 2 2 8 5 5 5 6 8 7 6 10 8 2 2 1 5 8 6 5 5 6 6 7 6 4 4 4 4 3 2 1 2 5 6 6 7 7 7 6 6 6 7 7 8 8 8 8 8 8 8 8 6 6 7 7 8 9 10 8 9 8 8 9 9 10 11 9 10
6 6 11 12 7 4 2 3 4 3 4 11 12 9 7 6 6 2 1 1 2 7 8 5 11 14 5 7 2 1 3 5 5 4 5 7 5 3 4 5 4 5 5 5 4 4 3 3 4 5 5 5 6 6 7 7 7 7 7 7 8 8 8 8 7 8 8 9 7 7 8 9 8 9 9 9 7 8 8 8 9 7 10 12 10 10
2 10 11 15 15 15 12 14 17 18 17 8 2 8 11 11 12 4 7 7 7 7 14 10 13 15 4 3 4 5 5 6 5 5 4 6 6 5 5 4 3 3 4 4 3 3 5 4 3 3 4 4 4 7 8 8 7 7 7 8 8 6 5 5 5 6 7 7 10 9 9 8 8 9 9 8 7 8 8 8 8 8 8 11 12 13
3 6 7 11 14 14 12 5 14 18 11 8 15 17 19 18 17 13 3 5 13 11 11 15 16 5 5 6 4 5 6 8 2 2 3 2 3 5 4 4 4 3 3 4 3 3 3 4 6 6 6 5 5 6 7 7 7 7 4 5 5 6 6 6 6 7 7 8 9 9 9 8 8 7 7 7 7 7 8 8 8 9 11 10 11 13
3 6 12 12 14 2 6 6 13 23 22 23 23 21 16 16 16 15 13 20 18 2 9 16 17 17 18 8 3 6 7 1 2 3 2 2 3 3 3 5 6 5 4 3 4 5 6 6 6 7 7 6 6 5 6 6 6 6 6 6 5 5 6 5 7 7 7 7 7 8 8 8 6 7 7 7 7 8 8 9 8 8 6 9 11 11
8 9 14 9 6 6 5 10 12 11 11 10 17 18 18 17 17 17 21 26 9 10 17 10 10 17 23 11 12 8 7 7 5 7 4 2 3 3 4 6 5 4 2 3 5 5 6 7 7 7 7 7 6 7 7 7 6 5 5 6 6 6 6 6 6 6 6 5 7 7 7 5 4 4 7 7 8 8 8 8 9 9 9 8 8 6
8 4 10 10 6 6 3 11 13 12 8 7 13 15 19 21 23 25 26 25 20 17 21 14 6 16 20 13 14 14 10 6 5 3 4 4 7 6 5 6 6 5 4 4 5 6 6 7 7 7 7 7 9 9 8 8 10 9 9 8 6 6 6 5 5 6 5 6 5 4 5 5 6 6 6 7 8 8 8 8 8 9 9 9 9 6
6 4 14 11 6 3 3 5 9 13 11 11 12 16 20 23 24 25 23 16 9 18 22 21 17 18 22 11 5 5 12 7 2 6 9 9 6 4 6 8 9 7 6 6 6 4 4 5 6 6 7 9 10 11 10 9 9 10 10 8 7 7 6 6 6 5 6 6 4 4 4 5 5 6 7 7 6 7 9 9 8 8 9 10 8 7
2 2 6 11 7 2 2 8 9 8 8 9 12 17 22 24 23 21 15 17 17 23 28 22 15 18 15 14 11 9 2 5 10 11 11 7 7 7 8 9 9 8 8 9 6 4 3 5 6 8 10 10 10 10 9 9 8 9 11 9 9 7 6 6 6 6 6 5 6 6 6 6 5 6 7 7 8 8 8 8 9 9 10 9 6 6
5 6 8 10 8 2 2 5 8 6 3 3 13 25 27 21 17 16 21 21 24 25 12 11 20 24 3 6 7 8 9 12 11 11 10 12 13 10 10 11 9 8 9 8 7 7 7 7 8 8 7 7 8 9 11 8 8 10 11 11 9 7 8 8 7 7 6 6 7 7 7 7 8 7 7 8 8 9 9 9 9 7 6 5 6 8
9 11 8 9 6 5 5 5 6 6 7 15 15 9 16 21 25 21 22 26 25 18 19 21 18 6 6 4 9 11 14 12 10 9 10 10 10 15 11 10 11 9 6 5 5 6 7 5 4 4 6 7 8 9 7 9 10 7 7 9 7 9 8 8 8 8 8 7 7 7 8 8 8 9 8 8 8 8 9 9 10 5 5 5 6 7
13 10 5 2 6 7 5 6 8 10 15 12 9 14 23 25 23 28 26 19 19 20 21 18 19 20 13 5 8 8 10 13 13 16 15 13 12 11 14 15 16 8 5 7 8 8 7 6 5 6 7 8 8 6 6 7 6 5 7 9 9 9 8 8 8 8 7 7 7 8 8 8 8 8 8 9 7 5 7 9 6 7 6 7 7 7
12 12 6 2 4 4 3 8 6 17 8 4 3 2 14 19 20 12 13 13 13 14 19 23 27 24 19 12 6 6 7 7 8 12 13 11 11 13 17 16 10 6 9 9 11 9 7 8 9 7 6 4 5 6 6 7 7 7 7 8 9 8 8 8 7 7 8 8 8 9 9 9 8 8 8 9 9 9 9 8 9 9 6 6 4 3
17 9 8 4 2 9 7 11 13 7 10 8 8 6 11 12 12 15 11 18 23 20 18 21 24 21 18 15 10 6 2 3 8 13 9 9 15 14 11 11 12 15 13 8 5 6 6 5 5 4 3 4 5 6 7 6 8 8 7 9 9 8 8 8 9 9 9 9 9 9 9 9 10 9 8 8 9 9 9 9 9 4 6 6 6 6
13 13 10 13 3 2 10 6 3 4 9 13 3 5 10 6 12 12 13 16 10 16 17 19 22 20 18 17 14 11 4 6 12 16 9 13 17 15 10 9 11 8 5 3 1 1 3 3 1 3 4 5 5 5 6 7 8 8 7 8 9 9 9 8 9 9 8 9 8 9 9 8 9 8 8 8 9 9 7 3 3 5 5 6 7 7
3 3 8 12 6 3 6 10 10 12 13 6 9 12 12 12 13 10 3 14 4 14 17 22 22 21 20 18 15 8 6 8 16 13 10 14 8 3 9 11 11 10 8 6 5 6 6 4 2 3 3 4 5 6 7 8 9 9 8 8 9 10 10 10 10 8 7 7 7 7 6 7 7 7 8 9 8 8 8 8 6 4 5 4 4 5
10 6 6 3 6 9 11 7 11 7 2 5 10 9 12 9 14 10 3 8 5 18 14 15 19 18 15 11 9 10 11 13 13 14 3 3 4 5 6 8 8 6 4 1 2 2 2 0 2 2 5 5 4 6 8 8 8 8 8 7 7 9 10 10 8 9 8 6 7 7 7 5 6 6 7 8 7 6 6 4 6 6 5 5 5 6
9 3 11 15 7 4 5 7 3 4 1 3 7 11 12 14 15 10 14 2 3 10 8 8 12 13 10 11 11 9 12 15 14 1 4 1 4 3 3 3 2 2 1 1 2 1 2 2 2 2 2 2 4 6 7 7 7 7 7 7 6 7 6 5 6 6 6 6 6 7 7 6 6 7 6 6 7 5 6 5 6 7 7 6 5 5
5 9 3 2 7 10 10 4 8 5 3 10 2 11 16 13 7 14 3 1 7 7 5 9 11 11 9 11 10 12 16 15 2 2 4 4 3 3 2 2 2 2 2 2 3 1 1 2 3 4 3 2 4 5 6 7 6 6 6 6 6 6 5 6 6 6 7 7 7 6 6 6 6 6 6 6 8 9 6 4 7 8 7 5 6 9
16 14 13 14 6 5 2 8 3 12 8 17 15 4 5 9 6 6 4 1 3 5 8 7 8 6 9 9 13 15 11 3 4 3 3 3 4 3 3 2 2 2 2 3 2 3 2 4 5 4 3 2 3 4 3 5 5 3 4 6 4 4 5 6 6 6 6 5 6 6 7 6 7 7 6 7 8 10 8 7 7 7 6 8 8 8
11 9 6 6 11 14 12 12 13 3 13 17 20 13 13 5 2 3 4 5 3 4 5 6 5 6 7 10 11 10 7 6 2 4 4 3 2 2 3 3 3 2 2 2 2 3 3 5 4 5 4 3 3 3 2 4 5 4 4 2 4 5 4 5 5 4 5 5 5 6 6 6 6 6 5 6 6 6 7 7 6 6 6 6 6 7
17 15 7 10 12 10 12 11 2 1 13 11 9 1 15 13 3 4 4 2 6 5 5 3 7 7 9 8 6 6 5 6 6 6 8 5 4 3 3 4 3 2 2 2 3 2 2 4 6 6 6 4 4 3 2 2 4 5 4 2 4 3 4 5 6 6 6 6 6 6 5 6 5 5 5 5 7 7 7 7 7 7 5 6 6 6
4 8 2 4 5 6 4 2 3 3 9 8 0 1 9 14 1 3 6 3 5 5 7 6 4 8 6 6 8 4 5 7 7 5 3 3 4 4 4 4 4 2 3 3 4 4 2 5 6 7 7 6 5 3 2 2 3 5 3 3 4 3 5 7 7 6 7 6 5 6 7 8 6 6 5 6 5 6 6 8 8 7 7 7 7 7
1 4 3 4 3 9 15 12 8 7 6 13 7 1 3 2 8 5 6 6 4 6 8 1 1 3 7 6 4 7 7 7 8 5 4 4 4 4 4 5 4 4 3 3 3 2 2 3 5 6 7 7 5 4 3 5 3 2 3 3 3 5 6 6 6 6 6 5 5 5 5 7 6 6 5 5 5 5 6 6 7 7 8 8 8 8
5 3 5 3 10 17 7 10 13 8 8 10 9 7 7 11 10 8 3 1 2 2 3 2 3 5 7 6 3 6 5 4 7 7 5 4 5 4 4 4 4 4 4 3 4 2 4 5 6 6 7 7 6 5 4 5 5 4 3 3 4 4 5 5 5 5 5 5 5 4 5 4 7 7 5 6 6 6 6 6 6 8 9 10 10 10
6 13 10 11 9 2 6 4 4 6 1 6 7 10 8 12 15 8 3 3 3 5 5 4 3 2 4 7 6 7 8 5 4 6 7 6 5 5 5 4 4 4 3 4 4 5 5 5 7 7 7 5 4 4 5 5 5 5 5 3 3 4 5 4 5 5 5 4 3 3 3 3 4 4 5 5 4 4 5 7 8 8 6 6 5 5
11 15 6 8 10 9 14 9 11 8 7 10 15 20 15 7 8 8 6 5 6 8 6 9 5 4 3 3 3 7 11 7 5 6 6 6 6 6 6 6 5 5 5 4 4 5 8 7 8 8 8 5 3 4 4 5 5 5 4 3 3 3 6 5 4 4 3 2 3 3 3 3 3 3 3 4 4 4 2 3 3 3 2 5 5 5
16 16 11 13 11 16 10 15 18 17 12 12 13 13 10 8 10 12 12 10 7 4 6 11 11 5 4 2 1 5 9 7 9 8 8 6 5 4 5 6 5 5 5 3 6 7 7 6 6 7 9 4 4 4 5 5 5 5 5 4 3 3 5 5 3 3 2 2 2 2 2 2 3 3 2 2 3 3 3 2 2 5 5 4 0 1
Wind_Direction
156 159 185 192 187 179 180 185 179 179 196 190 198 215 240 229 181 138 234 243 255 297 263 260 265 261 263 266 269 179 155 229 239 240 229 223 218 216 219 221 223 221 227 218 209 196 200 207 212 214 213 213 212 213 212 211 212 212 210 207 213 211 211 211 204 202 197 201 203 207 204 208 205 212 217 216 216 220 216 205 202 197 204 207 203 204
220 190 203 186 173 168 177 184 182 148 154 181 177 204 208 192 248 179 225 151 213 246 262 272 275 271 265 267 270 213 194 234 230 234 233 228 221 218 216 223 223 226 231 218 201 203 203 206 207 207 214 210 212 216 216 215 213 213 211 210 210 207 207 210 208 202 198 201 199 193 200 199 208 211 217 224 222 223 215 208 204 201 202 204 199 202
192 210 193 185 158 168 176 174 148 161 176 170 200 192 226 220 233 238 237 154 174 208 269 281 287 280 275 274 276 264 231 245 237 228 236 229 222 223 221 225 224 213 232 227 223 203 205 205 204 206 213 214 212 211 210 216 219 216 213 214 211 207 205 208 207 204 204 203 204 204 204 199 207 218 224 225 225 209 206 200 198 197 199 199 202 204
196 214 197 173 154 162 150 154 162 144 146 172 178 184 228 176 176 228 173 184 191 236 292 300 295 281 282 268 266 265 248 243 239 229 236 225 231 228 225 215 209 221 230 232 214 205 201 200 203 205 209 211 210 215 212 207 207 217 217 214 212 211 209 208 207 205 207 204 205 210 217 215 217 223 221 227 225 217 215 212 193 196 195 198 204 202
185 123 163 145 160 157 154 163 157 149 172 220 200 206 209 161 212 247 136 282 297 217 263 265 273 273 257 261 256 254 228 230 226 223 239 235 235 244 323 242 222 223 218 228 224 207 196 198 203 205 207 206 211 215 213 206 202 209 209 209 206 206 207 209 205 201 204 205 208 213 216 220 212 33 223 221 224 224 221 221 213 198 188 202 212 212
134 146 147 162 166 165 155 169 175 160 180 191 258 229 221 191 215 204 15 293 254 240 163 223 282 261 246 241 243 247 158 228 219 221 228 226 224 217 232 234 227 229 230 228 226 208 198 203 205 206 204 205 210 213 212 209 207 209 211 207 202 201 203 205 206 203 199 201 199 198 191 194 204 216 212 210 207 203 204 204 206 204 193 196 203 218
158 156 162 164 166 165 159 170 177 174 190 175 210 202 220 213 209 194 164 134 246 247 125 300 233 272 27 278 217 216 234 246 190 206 227 222 218 208 220 228 222 220 222 229 238 224 205 207 203 205 205 208 210 214 207 209 212 210 211 206 201 202 204 201 198 199 196 201 200 197 199 201 206 214 219 215 213 215 209 206 206 204 196 192 200 213
151 170 172 163 163 167 172 176 182 182 188 216 154 185 202 202 204 207 192 219 273 353 296 241 266 282 291 267 230 246 256 251 244 222 226 225 221 215 219 223 223 222 219 214 219 219 219 211 204 208 207 205 211 207 200 208 209 207 207 204 203 204 204 196 188 195 201 202 204 206 208 210 214 212 217 209 216 220 213 205 206 205 195 201 215 211
159 166 170 163 162 172 190 187 165 180 185 189 151 180 191 197 209 187 208 187 298 323 268 185 125 267 251 255 116 165 251 248 246 229 218 228 227 224 224 226 224 225 221 216 217 216 212 209 210 209 204 208 209 203 205 208 205 204 207 209 208 209 206 204 194 194 204 207 207 205 207 212 216 219 221 218 215 214 209 201 204 201 189 184 203 210
213 170 171 163 163 191 185 162 162 181 179 42 116 111 123 116 79 156 142 163 196 239 254 207 169 245 268 256 229 173 243 245 245 242 225 226 221 217 221 225 226 227 226 221 227 227 221 219 218 214 214 205 206 202 208 209 207 206 205 207 206 209 208 206 200 196 202 209 208 208 208 210 212 212 216 215 209 210 208 208 194 188 182 173 166 178
104 1 168 149 189 151 126 143 166 180 100 120 126 125 116 127 137 67 189 174 220 246 241 156 169 217 283 253 230 200 229 221 241 249 238 233 231 228 227 227 225 222 222 215 222 227 230 219 221 212 224 229 207 197 210 213 210 210 210 212 211 212 209 207 204 198 200 209 211 213 211 208 208 207 210 203 200 197 197 204 188 178 176 167 170 167
107 117 161 192 32 103 113 88 39 109 142 139 136 135 120 98 140 161 159 221 225 250 77 191 172 190 243 258 209 226 156 195 222 237 241 232 228 216 215 221 228 225 220 219 219 229 224 216 217 203 222 218 209 194 204 208 203 205 209 210 215 216 215 215 216 210 209 211 213 215 213 210 209 206 208 199 197 194 196 197 185 178 165 166 168 178
140 166 118 94 282 140 138 124 135 143 170 163 145 145 136 141 157 199 177 208 220 251 224 191 204 221 234 247 268 202 208 242 236 243 229 224 225 225 216 218 219 198 218 219 220 222 206 211 212 206 218 201 203 207 205 202 201 203 205 205 210 214 210 215 213 213 211 211 213 211 212 212 209 209 207 202 201 197 195 193 183 173 173 159 165 174
135 56 140 147 142 208 157 153 153 161 205 171 163 158 140 153 169 222 202 279 294 179 225 57 114 255 276 293 233 250 235 215 233 239 263 269 256 246 241 258 267 218 213 221 224 228 223 216 217 215 215 208 212 212 206 203 201 202 202 204 209 214 204 210 213 212 212 213 213 211 211 211 210 211 208 206 204 199 200 195 187 177 171 170 176 177
133 173 222 167 193 186 191 170 161 111 149 186 163 170 184 156 169 200 196 206 216 267 150 210 105 246 90 122 18 295 306 275 245 284 296 284 278 280 304 293 286 273 246 219 220 222 223 224 221 219 216 212 211 211 207 204 204 203 206 205 210 213 204 205 211 212 213 214 213 211 212 212 212 211 206 206 204 199 196 194 189 172 169 169 174 183
175 86 122 166 76 157 178 143 141 136 151 190 259 14 35 209 70 244 56 229 188 168 170 184 222 290 236 11 304 233 233 251 246 269 245 259 255 254 266 253 243 244 255 241 243 240 232 221 219 222 222 220 215 210 204 205 203 202 205 205 212 215 208 205 209 211 212 212 211 212 212 213 212 201 205 204 198 198 195 190 181 185 175 181 166 164
148 178 148 135 230 173 171 154 170 156 172 180 147 207 194 29 105 114 92 75 39 297 250 168 268 264 298 278 254 270 239 233 211 238 241 249 243 247 266 264 252 244 250 264 262 265 255 232 224 221 218 216 212 210 206 203 196 199 199 204 212 215 216 213 214 212 209 210 210 212 212 211 210 205 202 199 195 195 194 192 185 187 187 185 181 145
166 127 14 130 159 181 9 174 162 187 77 111 203 192 89 50 8 229 238 114 224 240 256 146 243 272 302 285 351 222 235 229 225 227 227 239 253 246 249 251 244 239 232 232 245 251 244 238 231 220 216 215 214 210 207 204 195 194 196 202 209 212 214 213 208 205 205 205 209 210 209 208 206 206 202 199 196 194 190 188 169 176 173 185 172 145
110 96 150 324 163 129 13 124 168 282 308 182 187 129 167 196 218 191 255 223 206 231 268 216 239 256 232 244 197 133 227 243 245 244 231 262 247 233 241 253 263 228 241 221 227 237 242 240 245 232 215 211 218 212 205 193 182 183 191 201 207 207 209 209 205 205 207 209 208 205 203 202 203 203 200 200 197 192 187 184 180 171 178 160 148 148
156 118 144 347 184 146 161 179 182 187 173 341 106 175 76 9 229 167 201 323 171 250 240 265 116 263 182 232 218 239 223 238 246 256 253 248 246 251 280 280 272 256 256 262 258 255 254 251 239 228 217 209 209 202 199 195 188 186 186 193 199 206 207 208 204 200 204 206 207 204 200 202 203 200 199 194 188 191 191 182 178 171 167 165 159 159
92 97 137 152 182 160 181 202 200 177 168 168 172 181 185 213 350 312 6 205 212 236 227 274 270 251 184 190 205 225 227 234 241 234 229 247 331 279 254 263 271 261 255 253 261 265 259 249 233 206 201 212 205 201 194 190 191 183 181 188 195 197 200 205 205 202 207 203 205 198 197 197 199 197 198 198 194 192 189 183 174 176 165 155 166 163
109 146 133 147 166 193 211 50 291 191 189 181 177 184 185 172 167 178 218 154 220 207 228 216 254 253 156 117 206 224 222 229 224 291 276 345 283 259 239 236 240 267 257 255 257 261 261 251 233 206 178 199 202 198 187 181 181 185 187 189 189 199 203 202 204 207 208 209 207 203 198 199 195 192 191 193 196 194 182 178 178 166 157 166 159 169
119 91 123 163 179 183 127 352 30 345 206 206 193 205 192 200 199 201 216 182 148 229 33 293 324 268 157 146 196 221 218 179 180 186 250 224 223 248 266 275 265 252 276 286 277 260 257 245 243 224 202 199 204 203 193 183 186 186 189 189 194 196 202 202 203 204 207 211 211 205 195 185 188 184 188 189 188 188 178 173 162 158 160 153 153 172
95 118 95 110 122 43 46 45 13 18 208 214 244 237 197 203 199 210 311 125 196 170 220 233 246 265 139 163 205 213 318 317 263 222 249 275 265 270 281 281 287 294 277 280 278 267 252 244 225 219 218 211 207 206 203 200 197 195 193 196 197 204 204 201 203 203 202 207 208 194 182 186 183 183 186 190 184 177 168 157 156 162 151 152 154 161
137 192 129 130 118 162 126 119 202 211 219 220 209 198 223 227 213 109 95 35 259 199 207 202 246 265 161 155 169 73 242 245 244 231 232 259 284 279 270 269 265 277 287 282 283 284 282 248 216 212 210 209 208 209 207 207 205 201 202 199 201 206 208 207 204 202 199 197 186 175 175 179 182 187 188 183 170 167 156 155 154 165 154 153 159 154
90 161 147 153 156 167 178 192 198 196 199 184 128 164 205 209 201 158 229 204 237 206 191 214 239 249 83 124 206 200 212 248 208 220 218 232 259 284 288 281 297 280 277 298 289 280 269 261 257 241 221 214 209 209 213 215 214 211 210 207 204 195 185 189 180 186 179 180 181 178 182 167 179 187 182 171 164 159 156 151 156 160 154 164 152 153
99 146 192 163 174 187 192 90 65 82 94 174 199 198 198 201 202 207 241 211 216 220 195 225 234 266 129 161 198 201 205 252 324 183 219 214 236 242 253 279 286 283 281 290 290 281 281 263 247 237 226 219 208 210 216 219 219 214 205 200 188 181 185 183 183 186 184 173 191 161 189 183 186 177 169 167 159 152 151 155 156 162 166 162 162 153
118 158 206 189 189 288 139 129 165 153 175 194 189 199 195 193 200 204 207 220 218 101 244 233 231 252 253 184 190 244 278 187 155 270 268 253 262 267 310 299 281 267 259 239 235 236 240 235 233 231 225 215 211 197 213 221 222 213 203 198 195 182 190 192 192 192 191 185 183 186 169 177 173 168 164 155 150 158 159 156 156 158 157 154 161 157
164 188 194 177 148 35 103 142 158 171 180 178 183 184 181 188 191 201 221 235 202 204 232 233 202 234 249 205 209 201 220 234 156 188 224 283 297 275 273 279 290 286 280 248 241 231 226 232 224 221 222 219 205 201 200 210 214 217 210 208 201 186 194 187 184 183 181 182 179 175 172 164 155 143 145 146 147 150 156 157 155 152 156 160 156 156
172 227 162 166 119 74 41 154 161 168 170 152 185 186 191 190 198 206 218 221 213 228 243 266 226 242 253 238 224 217 230 215 211 149 176 204 246 248 250 256 255 264 247 244 227 217 215 226 229 219 212 213 212 206 197 198 207 205 204 206 203 199 182 163 186 171 174 182 184 165 158 158 150 146 141 147 153 155 151 149 152 153 156 155 149 149
196 163 142 137 123 55 57 140 168 166 168 187 195 198 199 203 207 211 218 219 209 248 258 260 254 263 260 225 226 201 223 252 8 266 254 255 260 235 264 276 286 287 276 269 269 229 213 221 232 231 220 219 211 210 202 200 196 201 204 202 188 193 173 171 173 177 176 182 163 151 139 146 153 149 149 151 143 143 151 152 149 152 150 146 139 144
118 91 142 141 141 130 85 152 158 165 173 190 203 205 206 203 210 213 219 214 195 220 230 237 251 254 259 119 198 174 142 227 246 261 266 253 226 236 239 248 242 244 258 262 260 254 234 223 219 224 227 220 214 210 207 201 190 194 204 195 190 183 166 175 174 176 179 170 155 154 156 151 142 153 151 148 155 154 153 149 152 157 155 146 141 146
133 135 156 159 147 125 238 144 140 124 108 266 241 216 202 200 208 213 221 217 211 219 232 223 229 238 148 129 179 179 193 216 228 230 245 261 258 223 237 254 244 225 231 238 243 241 232 222 213 217 220 221 219 214 215 196 179 199 199 192 185 158 171 181 177 173 173 166 164 164 161 156 156 155 157 160 158 157 151 154 156 144 142 145 143 142
128 141 147 157 137 149 160 155 109 139 204 227 232 145 161 192 201 207 217 218 216 209 220 222 235 257 84 170 186 201 208 225 234 242 233 242 264 279 265 228 231 231 222 238 251 246 243 232 240 236 234 230 226 220 205 191 200 193 180 184 165 165 177 177 182 179 177 170 169 166 162 160 162 164 164 155 156 150 155 161 165 152 140 129 145 156
144 141 140 143 133 149 155 137 167 214 231 242 72 160 184 197 200 208 221 219 217 217 236 261 264 262 249 185 210 207 214 225 229 242 249 250 251 247 254 266 273 276 257 247 249 237 235 235 233 230 226 227 224 211 191 199 187 152 168 180 175 181 177 185 178 186 179 175 175 169 166 167 168 167 159 161 160 151 162 168 145 148 158 162 162 161
149 145 138 66 109 64 147 175 177 225 234 85 142 139 178 192 204 204 254 254 239 223 226 238 246 249 249 236 181 214 214 242 264 251 247 257 259 256 263 263 254 207 219 222 225 216 206 208 209 211 216 195 191 197 194 188 164 166 169 181 187 185 186 183 186 185 180 183 180 177 177 170 168 163 163 165 168 170 172 170 168 166 160 158 155 139
165 138 151 119 240 163 199 184 223 356 344 263 198 198 175 182 153 178 215 241 222 218 213 231 243 244 245 247 224 182 155 314 269 256 181 225 239 238 235 253 261 265 258 248 195 199 208 209 194 189 155 165 183 181 190 165 163 171 160 181 187 184 185 187 194 194 190 189 182 182 179 176 172 170 168 168 168 177 176 173 172 158 159 155 159 155
180 169 172 156 213 203 163 194 255 282 256 241 118 105 153 134 157 174 208 259 219 202 209 223 237 239 241 240 234 219 105 263 261 256 167 211 234 245 240 250 278 291 315 339 24 306 232 239 207 134 170 164 175 179 157 160 164 162 159 176 182 181 192 195 203 199 192 195 187 187 182 180 175 169 168 170 181 180 178 150 135 152 168 160 153 158
51 167 175 174 150 139 177 185 202 206 230 93 158 155 153 151 157 152 138 259 187 171 200 214 230 233 223 219 218 136 172 224 244 258 243 233 241 155 240 239 235 236 226 207 210 210 215 229 191 146 149 161 173 170 162 160 159 163 173 174 181 187 192 201 203 194 190 192 186 184 174 174 174 175 172 178 182 176 171 171 167 125 154 150 137 130
163 166 172 155 163 193 181 185 218 215 213 173 150 174 155 138 121 122 185 268 156 189 199 196 217 228 224 218 186 178 190 225 238 250 298 92 159 185 222 246 246 240 258 359 316 290 310 325 125 144 174 188 167 146 159 156 165 173 169 173 169 189 200 200 193 195 191 177 178 178 178 177 175 175 174 176 169 166 162 129 134 156 153 143 150 147
171 186 190 198 175 145 185 224 344 275 184 225 173 131 137 139 143 163 210 143 154 203 216 194 222 234 226 209 186 201 215 219 236 257 57 115 103 87 52 56 51 13 298 302 288 339 218 198 189 159 164 127 128 145 151 159 158 173 173 163 176 197 192 172 165 157 158 154 159 176 184 181 176 170 166 165 163 135 137 142 146 145 152 142 141 144
186 182 224 206 185 182 196 218 239 291 190 158 336 149 149 126 198 209 139 99 149 191 191 198 214 223 203 198 185 207 222 225 100 94 78 52 76 95 80 59 70 56 31 335 328 301 159 128 96 85 76 80 134 142 152 154 162 166 155 165 191 191 160 151 152 154 157 159 171 172 167 169 162 160 157 148 145 145 136 136 144 156 155 148 148 156
174 173 183 189 172 60 111 209 70 256 221 131 122 85 289 180 211 132 146 179 194 176 167 195 206 208 187 193 205 215 220 92 166 157 103 102 114 109 92 92 73 54 24 3 39 31 80 98 65 59 64 69 100 132 142 147 154 146 152 184 175 140 147 152 153 153 149 154 160 165 165 163 159 156 153 154 157 155 144 144 150 156 150 155 156 159
156 177 173 193 177 178 176 190 209 222 92 149 136 180 195 210 23 134 123 166 197 188 185 195 218 185 179 193 191 212 214 180 127 163 136 147 118 126 98 95 89 75 74 50 31 17 58 95 89 93 72 83 103 112 117 148 144 151 156 143 123 134 133 135 142 136 145 149 146 145 152 152 153 148 141 153 145 142 139 149 142 145 159 153 152 154
198 200 184 185 171 191 202 205 48 217 132 175 163 153 168 191 148 190 174 207 170 214 203 177 210 183 197 170 157 157 160 206 178 172 189 174 149 126 118 82 75 71 62 48 34 27 63 109 119 111 88 71 83 87 87 96 134 133 143 130 136 134 137 133 136 146 136 142 148 150 141 142 141 140 139 142 150 146 149 144 149 157 161 159 168 165
179 189 30 115 204 261 342 76 84 122 173 179 300 308 176 182 159 201 185 174 239 182 173 193 193 170 159 175 136 185 191 162 152 160 140 115 122 113 117 116 96 89 80 70 64 45 76 106 108 107 99 72 57 69 65 69 120 137 148 134 146 138 119 137 143 146 148 143 140 136 133 128 127 133 141 150 163 159 160 158 166 165 163 174 180 178
295 108 123 176 144 126 237 179 143 165 179 198 188 169 319 274 193 190 205 224 195 167 177 130 190 149 148 156 181 158 161 167 144 139 132 132 129 135 124 107 81 59 54 53 29 18 78 87 95 87 85 73 47 45 43 52 38 73 113 130 127 114 132 141 146 129 127 134 128 134 145 149 155 152 152 160 162 166 166 168 171 168 170 180 179 181
213 199 161 190 152 192 241 131 173 171 188 196 181 148 186 205 206 211 205 317 112 93 91 100 133 126 131 142 148 149 127 163 147 150 141 131 126 116 109 99 101 87 58 44 37 38 72 71 85 80 73 65 41 35 38 40 38 32 56 80 81 110 118 119 123 134 138 137 140 150 163 161 157 156 161 173 171 169 173 179 185 184 187 184 181 178
133 134 207 165 180 196 31 309 41 107 5 224 222 251 215 189 192 166 101 103 120 114 102 66 17 111 138 120 133 130 131 157 157 139 131 126 123 120 112 108 90 82 65 61 33 43 78 86 83 76 74 59 31 41 40 38 33 27 36 47 63 105 107 101 94 93 98 123 133 146 159 158 162 179 167 165 181 193 184 180 189 196 211 216 202 194
129 193 171 136 203 203 204 163 157 136 214 213 216 212 209 204 172 127 129 160 177 156 147 119 81 52 63 79 141 148 145 150 149 143 127 129 120 120 120 114 110 102 93 83 83 83 86 82 96 95 84 66 48 53 55 50 37 32 34 37 34 59 99 107 108 110 123 133 146 140 161 164 168 176 166 166 179 183 217 331 316 305 224 211 222 258
184 184 153 189 196 216 158 155 187 200 208 210 197 196 182 163 151 165 184 179 180 172 161 139 127 109 94 76 353 172 145 144 147 132 115 112 112 103 112 121 121 115 104 123 103 79 80 88 94 89 79 63 51 52 49 48 28 28 21 26 31 59 97 119 123 120 120 147 168 166 173 161 161 170 174 173 171 178 186 192 204 239 266 311 322 226